Stations météo

réclame
Mon MeteoGroup
Vlieland, Pays-Bas (6242): Température de l'air & dewpoint: 10.08.2018 03:00:00 - 16.08.2018 03:00:00 (CEST)Vlieland, Pays-Bas (6242): Température de l'air 5cm: 10.08.2018 03:00:00 - 16.08.2018 03:00:00 (CEST)Vlieland, Pays-Bas (6242): Vitesse du vent & gusts: 10.08.2018 03:00:00 - 16.08.2018 03:00:00 (CEST)Vlieland, Pays-Bas (6242): Direction du vent: 10.08.2018 03:00:00 - 16.08.2018 03:00:00 (CEST)Vlieland, Pays-Bas (6242): reduced air pressure: 10.08.2018 03:00:00 - 16.08.2018 03:00:00 (CEST)Vlieland, Pays-Bas (6242): visibility: 10.08.2018 03:00:00 - 16.08.2018 03:00:00 (CEST)
Date & Time tt [°C] td [°C] tt 5cm [°C] ff [km/h] ff [knt] fx [km/h] fx [knt] dd ppp [hPa] vv [km]
16.08.2018 03:00:00 18,1 15,4 17,7 26 14 36 19 SSW 1014,4 10
16.08.2018 02:00:00 18,2 15,6 17,6 28 15 40 21 SSW 1015,0 10
16.08.2018 01:00:00 18,5 16,1 18,0 29 16 36 19 SSW 1015,5 10
16.08.2018 00:00:00 18,8 16,2 18,4 28 15 36 19 SSW 1015,9 10
15.08.2018 23:00:00 18,4 15,8 18,0 22 12 32 18 SSW 1016,0 10
15.08.2018 22:00:00 18,3 16,0 17,8 24 13 36 19 SSW 1016,2 10
15.08.2018 21:00:00 18,6 15,4 18,3 24 13 36 19 SSW 1016,3 10
15.08.2018 20:00:00 19,5 15,5 19,8 31 17 43 23 SW 1016,2 10
15.08.2018 19:00:00 19,8 15,4 20,8 37 20 43 23 SW 1016,4 10
15.08.2018 18:00:00 19,5 15,1 20,3 35 19 43 23 WSW 1016,7 10
15.08.2018 17:00:00 20,3 15,6 22,1 36 19 43 23 SW 1016,9 16
15.08.2018 16:00:00 20,4 16,2 22,0 37 20 47 25 SW 1016,9 10
15.08.2018 15:00:00 21,2 15,8 23,6 36 19 43 23 SW 1017,1 15
15.08.2018 14:00:00 21,9 17,1 25,1 34 18 43 23 SW 1016,9 10
15.08.2018 13:00:00 21,9 16,8 24,8 34 18 40 21 SW 1016,9 10
15.08.2018 12:00:00 22,1 16,1 24,2 21 11 29 16 SW 1016,7 10
15.08.2018 11:00:00 21,5 17,3 23,9 18 10 22 12 WSW 1016,9 10
15.08.2018 10:00:00 21,1 17,6 23,6 11 6 14 8 WSW 1016,6 10
15.08.2018 09:00:00 20,5 17,4 21,6 13 7 22 12 W 1016,2 10
15.08.2018 08:00:00 19,5 17,4 19,5 21 11 25 14 W 1016,0 10
15.08.2018 07:00:00 18,8 16,9 18,2 21 11 29 16 WSW 1015,6 10
15.08.2018 06:00:00 18,7 16,4 18,1 24 13 32 18 WSW 1015,2 10
15.08.2018 05:00:00 19,1 16,2 18,6 24 13 29 16 SW 1015,5 10
15.08.2018 04:00:00 18,5 15,7 18,0 22 12 29 16 SW 1015,7 10
15.08.2018 03:00:00 19,0 15,7 18,7 26 14 32 18 WSW 1015,8 10
15.08.2018 02:00:00 19,4 14,9 19,1 29 16 40 21 W 1016,0 10
15.08.2018 01:00:00 19,0 15,6 18,6 29 16 36 19 WSW 1015,8 10
15.08.2018 00:00:00 18,4 15,0 18,0 26 14 36 19 WSW 1016,0 10
14.08.2018 23:00:00 18,3 15,2 18,1 28 15 32 18 W 1016,1 10
14.08.2018 22:00:00 18,1 15,6 18,0 28 15 32 18 WSW 1016,0 10
14.08.2018 21:00:00 18,3 15,6 18,2 22 12 29 16 WSW 1015,6 10
14.08.2018 20:00:00 18,8 15,5 19,3 21 11 29 16 W 1015,3 10
14.08.2018 19:00:00 19,5 15,0 20,3 22 12 29 16 W 1015,3 10
14.08.2018 18:00:00 19,6 14,4 21,4 22 12 29 16 W 1015,2 10
14.08.2018 17:00:00 19,9 14,1 22,1 26 14 32 18 WNW 1015,2 10
14.08.2018 16:00:00 20,3 14,8 22,9 28 15 36 19 WNW 1014,9 10
14.08.2018 15:00:00 20,1 15,4 22,0 31 17 40 21 WNW 1014,4 10
14.08.2018 14:00:00 20,3 15,6 22,3 35 19 43 23 WNW 1013,7 10
14.08.2018 13:00:00 19,0 14,6 19,9 35 19 43 23 WNW 1012,9 10
14.08.2018 12:00:00 19,8 15,3 21,1 37 20 43 23 WNW 1012,4 10
14.08.2018 11:00:00 18,6 14,6 19,6 37 20 47 25 WNW 1011,6 10
14.08.2018 10:00:00 18,6 14,8 19,5 39 21 50 27 NW 1011,1 10
14.08.2018 09:00:00 18,1 14,5 18,1 41 22 54 29 NW 1010,2 10
14.08.2018 08:00:00 17,0 15,1 16,8 44 24 58 31 NW 1009,3 8
14.08.2018 07:00:00 17,5 15,6 17,1 42 23 58 31 WNW 1008,5 10
14.08.2018 06:00:00 17,5 15,6 17,0 39 21 47 25 NW 1007,8 10
14.08.2018 05:00:00 17,2 16,0 16,7 39 21 50 27 NW 1007,5 10
14.08.2018 04:00:00 17,2 16,5 17,2 41 22 47 25 NW 1007,0 2,0
14.08.2018 03:00:00 17,9 16,8 17,5 34 18 40 21 W 1006,5 10
14.08.2018 02:00:00 17,5 15,9 17,1 29 16 40 21 W 1006,6 10
14.08.2018 01:00:00 17,8 16,5 17,4 29 16 36 19 W 1006,4 10
14.08.2018 00:00:00 17,5 16,7 17,1 26 14 36 19 W 1006,2 10
13.08.2018 23:00:00 17,1 16,5 17,0 21 11 29 16 W 1006,0 10
13.08.2018 22:00:00 17,4 16,3 17,3 28 15 40 21 WNW 1005,8 10
13.08.2018 21:00:00 18,2 16,8 18,1 28 15 32 18 W 1005,3 10
13.08.2018 20:00:00 18,4 16,6 18,4 21 11 25 14 WSW 1005,0 10
13.08.2018 19:00:00 18,6 16,1 18,8 21 11 25 14 WSW 1004,9 10
13.08.2018 18:00:00 18,4 16,5 18,7 15 8 18 10 WSW 1005,0 10
13.08.2018 17:00:00 18,0 16,7 18,8 13 7 18 10 WSW 1004,9 10
13.08.2018 16:00:00 17,0 16,2 17,1 11 6 25 14 WSW 1004,8 5
13.08.2018 15:00:00 17,6 16,4 17,5 16 9 25 14 W 1005,2 4,2
13.08.2018 14:00:00 19,8 17,1 21,1 16 9 18 10 NNW 1004,6 10
13.08.2018 13:00:00 19,8 17,7 20,9 15 8 18 10 NNW 1004,7 10
13.08.2018 12:00:00 20,0 15,3 20,9 9 5 18 10 NNW 1004,9 10
13.08.2018 11:00:00 20,4 16,8 22,5 11 6 14 8 NNW 1004,6 10
13.08.2018 10:00:00 18,8 16,8 19,0 8 4 11 6 N 1004,8 10
13.08.2018 09:00:00 18,8 16,6 18,6 8 4 11 6 N 1005,0 10
13.08.2018 08:00:00 18,6 16,0 18,4 11 6 22 12 NNW 1004,8 10
13.08.2018 07:00:00 18,0 15,6 17,3 8 4 14 8 N 1005,0 10
13.08.2018 06:00:00 17,7 15,2 17,4 8 4 14 8 SE 1005,6 10
13.08.2018 05:00:00 18,2 16,2 17,9 11 6 18 10 SE 1005,6 10
13.08.2018 04:00:00 18,2 16,8 17,8 13 7 14 8 ESE 1006,3 10
13.08.2018 03:00:00 18,9 17,5 18,4 8 4 18 10 SSE 1006,9 10
13.08.2018 02:00:00 18,8 17,1 18,3 9 5 14 8 S 1007,9 10
13.08.2018 01:00:00 18,8 17,2 18,0 9 5 11 6 S 1007,9 10
13.08.2018 00:00:00 18,2 15,8 17,3 11 6 14 8 S 1008,3 10
12.08.2018 23:00:00 18,8 15,4 18,1 11 6 14 8 S 1008,8 10
12.08.2018 22:00:00 19,8 15,8 19,0 11 6 18 10 SSW 1009,4 10
12.08.2018 21:00:00 20,7 15,6 20,3 13 7 22 12 SW 1009,2 10
12.08.2018 20:00:00 21,5 15,1 21,8 21 11 29 16 SW 1009,4 10
12.08.2018 19:00:00 21,6 14,7 21,8 22 12 40 21 SW 1010,1 10
12.08.2018 18:00:00 22,3 13,0 22,9 34 18 47 25 SW 1010,4 10
12.08.2018 17:00:00 22,4 13,0 23,3 39 21 50 27 SW 1010,8 10
12.08.2018 16:00:00 22,1 12,8 23,1 42 23 54 29 SW 1011,4 10
12.08.2018 15:00:00 22,1 13,6 22,5 42 23 54 29 SW 1011,8 10
12.08.2018 14:00:00 22,3 13,9 23,8 44 24 54 29 SW 1012,2 10
12.08.2018 13:00:00 22,3 13,8 24,2 46 25 58 31 SW 1012,4 10
12.08.2018 12:00:00 20,9 14,4 21,5 35 19 47 25 SSW 1012,9 10
12.08.2018 11:00:00 19,1 13,7 19,8 29 16 40 21 S 1013,3 10
12.08.2018 10:00:00 17,4 14,4 17,4 28 15 40 21 S 1013,7 10
12.08.2018 09:00:00 16,9 13,8 16,9 28 15 36 19 S 1014,5 10
12.08.2018 08:00:00 16,0 13,1 15,6 26 14 36 19 S 1015,0 10
12.08.2018 07:00:00 16,3 11,2 16,0 22 12 36 19 S 1015,6 10
12.08.2018 06:00:00 16,0 11,2 15,3 18 10 32 18 S 1016,0 10
12.08.2018 05:00:00 16,2 11,7 15,9 22 12 29 16 S 1016,6 10
12.08.2018 04:00:00 16,1 11,8 15,7 18 10 25 14 S 1017,4 10
12.08.2018 03:00:00 15,5 12,1 15,1 21 11 25 14 S 1018,1 10
12.08.2018 02:00:00 14,3 11,2 12,5 21 11 22 12 S 1018,7 10
12.08.2018 01:00:00 13,9 10,6 12,5 15 8 18 10 SSW 1019,3 10
12.08.2018 00:00:00 14,7 10,4 13,8 15 8 18 10 SSW 1019,8 10
11.08.2018 23:00:00 15,2 10,2 14,1 16 9 22 12 SW 1020,4 10
11.08.2018 22:00:00 15,5 9,9 14,5 18 10 32 18 WSW 1020,8 10
11.08.2018 21:00:00 16,2 9,9 15,7 24 13 32 18 WSW 1021,0 10
11.08.2018 20:00:00 17,1 10,3 17,3 24 13 32 18 WSW 1021,0 10
11.08.2018 19:00:00 17,9 10,8 19,3 26 14 40 21 W 1021,4 10
11.08.2018 18:00:00 17,8 10,5 19,1 28 15 36 19 W 1021,4 10
11.08.2018 17:00:00 19,0 11,6 19,9 29 16 36 19 W 1021,4 10
11.08.2018 16:00:00 19,0 11,4 19,0 29 16 40 21 W 1021,3 10
11.08.2018 15:00:00 19,0 11,9 20,3 31 17 43 23 W 1021,3 10
11.08.2018 14:00:00 18,7 11,9 21,2 35 19 43 23 W 1021,1 10
11.08.2018 13:00:00 18,7 12,1 19,7 39 21 47 25 W 1020,6 10
11.08.2018 12:00:00 17,0 12,6 16,6 39 21 58 31 W 1020,4 10
11.08.2018 11:00:00 17,4 12,3 18,0 39 21 58 31 W 1019,8 10
11.08.2018 10:00:00 16,1 11,4 15,7 41 22 54 29 W 1019,3 10
11.08.2018 09:00:00 16,3 11,6 16,0 39 21 47 25 W 1018,8 10
11.08.2018 08:00:00 15,9 11,1 15,7 34 18 43 23 W 1018,3 10
11.08.2018 07:00:00 15,3 10,6 14,7 35 19 43 23 WNW 1017,7 10
11.08.2018 06:00:00 14,5 10,9 13,7 37 20 43 23 WNW 1017,4 10
11.08.2018 05:00:00 14,4 11,3 13,7 31 17 61 33 WNW 1016,6 10
11.08.2018 04:00:00 16,2 10,1 15,5 37 20 61 33 W 1016,5 10
11.08.2018 03:00:00 15,7 9,0 15,3 39 21 50 27 W 1016,4 10
11.08.2018 02:00:00 15,2 10,5 14,8 37 20 47 25 W 1016,4 10
11.08.2018 01:00:00 15,6 11,2 15,1 34 18 47 25 W 1016,2 10
11.08.2018 00:00:00 15,4 11,0 15,0 31 17 47 25 W 1016,0 10
10.08.2018 23:00:00 15,7 11,6 15,0 39 21 50 27 W 1015,8 10
10.08.2018 22:00:00 15,4 12,9 14,9 41 22 68 37 WSW 1015,7 10
10.08.2018 21:00:00 16,0 14,4 15,4 55 30 76 41 S 1014,4 10
10.08.2018 20:00:00 15,7 13,7 14,8 22 12 68 37 S 1015,6 10
10.08.2018 19:00:00 16,9 12,1 16,5 26 14 61 33 SSW 1016,9 10
10.08.2018 18:00:00 16,6 11,9 15,9 26 14 58 31 SSW 1017,6 10
10.08.2018 17:00:00 19,4 10,5 21,3 41 22 54 29 SW 1017,9 10
10.08.2018 16:00:00 18,7 11,9 20,5 41 22 50 27 WSW 1018,2 10
10.08.2018 15:00:00 19,2 10,3 20,8 42 23 54 29 WSW 1018,4 10
10.08.2018 14:00:00 19,0 10,8 21,5 35 19 47 25 WSW 1018,2 10
10.08.2018 13:00:00 19,6 10,2 21,5 41 22 54 29 WSW 1017,8 10
10.08.2018 12:00:00 19,4 10,4 21,0 41 22 50 27 WSW 1017,3 10
10.08.2018 11:00:00 18,6 11,5 20,0 41 22 47 25 WSW 1017,0 10
10.08.2018 10:00:00 16,4 11,8 16,1 34 18 50 27 SW 1017,1 10
10.08.2018 09:00:00 17,4 11,3 17,3 41 22 47 25 WSW 1016,3 10
10.08.2018 08:00:00 16,6 11,5 16,6 34 18 47 25 WSW 1016,0 10
10.08.2018 07:00:00 15,8 11,2 15,3 39 21 54 29 WSW 1015,8 10
10.08.2018 06:00:00 14,9 10,8 14,2 44 24 58 31 WSW 1015,4 10
10.08.2018 05:00:00 15,8 10,3 15,3 42 23 54 29 WNW 1014,9 10
10.08.2018 04:00:00 15,6 10,1 14,6 46 25 68 37 WNW 1014,3 10
10.08.2018 03:00:00 14,9 12,8 14,5 52 28 68 37 WNW 1013,0 7

tt = Température de l'air
td = dewpoint
tt 5cm = Température de l'air 5cm
ff = Vitesse du vent
fx = gusts
dd = Direction du vent
ppp = reduced air pressure
vv = visibility

stations d'obs. à proximité